User: anonymous   Login
Location: Unspecified
(40.8819°N, 0.0000°E)
Time: 03:32:11
(UTC+00:00)
Language:

UNISAT 6 - Orbit

View from above orbital plane
View from above orbital plane
View from above satellite
View from above satellite

Ground track
Ground track

The orbit data is extracted from the following two-line orbital elements,

1 40012U 14033C   24106.45053884  .00006640  00000-0  87949-3 0  9994
2 40012  97.6978 271.4831 0054230 149.0210 211.4220 14.79175013528568
Epoch (UTC): 15 April 2024 10:48:46
Eccentricity: 0.0054230
inclination: 97.6978°
perigee height: 594 km
apogee height: 670 km
right ascension of ascending node: 271.4831°
argument of perigee: 149.0210°
revolutions per day: 14.79175013
mean anomaly at epoch: 211.4220°
orbit number at epoch: 52856

The dashed part of the orbit path shows where the satellite is in the earth's shadow,  

DLR